Starlink 5995

operational
NORAD ID: 56456 Int'l Des: 2023-064 Owner: SPXS Country: US Constellation: starlink
LEOCIRCULAR

Starlink 5995について

説明を読み込み中...

リアルタイム位置

3D地球を読み込み中...

次回通過

高度履歴

Altitude vs Time

uPlot chart will show altitude changes over time

軌道要素

1 56456U 23064J 25303.89954253 .00000839 00000-0 78103-4 0 9992
2 56456 69.9998 111.7506 0002957 271.3101 88.7719 14.98334446135800
Epoch: Oct 30, 2025 • Age: 13 hours

現在のステータス

高度 580.9 km
速度 7.57 km/s
衛星直下点 49.21°N, 64.47°W
打ち上げ日 May 10, 2023
運用期間 2.4 years
タイプ internet

技術仕様

分類 Payload
質量 305.00 kg
乾燥質量 290.00 kg
総質量 305.00 kg
長さ 0.20 m
直径 2.80 m
スパン 9.00 m
形状 Box + pan
製造者 SPXS
バスタイプ Starlink
フェーズステータス In Orbit
所有者/国 SPXS/US

大規模コンステレーション

Loading constellations...